OBJECT XX, 66911

Orbit data source: Space-Track

You're viewing an Uncataloged Satellite

Recently launched and/or uncataloged satellites may have evolving metadata. Metadata may include but not limited to: Owner, Maufacturer, Bus, Motor, and Mission.

OBJECT XX, 66911 is an American satellite in LEO that was delivered to and deployed from the ISS. Unknown objects in Earth's orbit typically refer to objects detected orbiting the Earth but have not yet been identified or cataloged. These objects could be anything from previously untracked satellites, spent rocket stages, debris from satellite collisions, or even natural meteoroids temporarily captured by Earth's gravity.

Loading next visibility...
Identifier
66911, 1998-067XX
Orbit
LEO
Country
Flag of USUS
Related business
None
Manufacturer
Unknown
Mission
Operational Amateur Technology
Bus & Motor
Unknown
Mass
Unknown
Launch date (UTC)
1998-11-20 (27 years ago)
Launch vehicle
FALCON 9
Launch site
Tyuratam Missile And Space Complex (TTMTR)
Object type
Unknown
Shape & HBR
Box, 1.1 m
Radar Cross Section
0.015 m²

Expand to show TLE details & history
Last TLE update: 2 days ago

TLE from 2 days ago
0 OBJECT XX
1 66911U 98067XX  26033.97768564  .00107333  00000-0  11667-2 0  9999
2 66911  51.6238 240.8615 0002356 210.9723 149.1132 15.62627778  9748
Epoch: 2026-02-02T23:27Z
TLE epoch observation values (Epoch: 2026-02-02T23:27:52.039Z)
Latitude
-0.00005°
Longitude
115.7294°
Altitude
382.18 km
Speed
7.681 km/s
True Right ascension
16h 03m 26s
True Declination
0° 00' 00"
Sunlit
Object was in daylight at epoch
Visualization orbit readout
Latitude
Unknown
Longitude
Unknown
Altitude
Unknown
Speed
Unknown
Apparent Right ascension
Unknown
Apparent Declination
Unknown
Sunlit
N/A
Visualization observer readout
Local Sidereal Time
19:05:26
Azimuth
Unknown
Elevation
Unknown
Doppler factor
Unknown
Orbital elements
Apogee altitude
382.176 km
Perigee altitude
378.991 km
Semi-major axis
6,758.72 km
Eccentricity
0.00024
Inclination
51.6238°
RAAN
240.8615°
Arg. of periapsis
210.9723°
True anomaly
149.12706°
Mean anomaly
149.1132°
Eccentric anomaly
149.12013°
Mean motion
3.90613 °/min
Orbital period
92.16 mins
BSTAR
0.0011667
Loading maneuver chart data...
Computing Atmospheric mass density...

Documentation

Showing up to 5 results
|